Location: Unspecified
(0.0000°N, 0.0000°E)
Time: 13:39:37
(UTC+00:00)

Tiangong - Pass Details

Date: 04 December 2021
Orbit: 379 x 385 km, 41.5° (Epoch: 08 December)

Event Time Altitude Azimuth Distance (km) Brightness Sun altitude
Exits shadow 05:01:18 18° 302° (WNW) 1,000 2.5 -11.3°
Maximum altitude 05:03:26 63° 224° (SW) 424 1.1 -10.8°
Drops below altitude 10° 05:06:31 10° 142° (SE) 1,385 4.9 -10.1°
Sets 05:08:36 0° 139° (SE) 2,239 6.2 -9.6°
